H1 CPF 2 NER 2023 5 3 9 123 01 glonass140 H2 1903001 9140 44299 2023 5 3 0 0 0 2023 5 6 23 45 0 900 1 1 0 0 0 1 H9 10 0 60067 0.00000 0 -25148689.024 -4220411.774 921865.617 10 0 60067 900.00000 0 -25083339.439 -4072192.665 -2282325.160 10 0 60067 1800.00000 0 -24617071.437 -3897268.534 -5442202.770 10 0 60067 2700.00000 0 -23756872.155 -3750501.117 -8496384.985 10 0 60067 3600.00000 0 -22522772.734 -3684552.721 -11385501.520 10 0 60067 4500.00000 0 -20947103.349 -3747422.139 -14053352.044 10 0 60067 5400.00000 0 -19073249.318 -3980180.651 -16448004.818 10 0 60067 6300.00000 0 -16953959.323 -4415005.015 -18522814.061 10 0 60067 7200.00000 0 -14649275.774 -5073592.026 -20237335.597 10 0 60067 8100.00000 0 -12224173.301 -5966023.216 -21558122.452 10 0 60067 9000.00000 0 -9746003.721 -7090129.316 -22459384.411 10 0 60067 9900.00000 0 -7281854.082 -8431383.007 -22923498.174 10 0 60067 10800.00000 0 -4895928.037 -9963326.133 -22941357.774 10 0 60067 11700.00000 0 -2647059.884 -11648514.926 -22512558.001 10 0 60067 12600.00000 0 -586465.070 -13439944.732 -21645406.838 10 0 60067 13500.00000 0 1244179.011 -15282895.311 -20356766.335 10 0 60067 14400.00000 0 2814242.046 -17117119.810 -18671724.690 10 0 60067 15300.00000 0 4105177.033 -18879285.666 -16623105.764 10 0 60067 16200.00000 0 5111041.159 -20505564.776 -14250825.510 10 0 60067 17100.00000 0 5838480.702 -21934263.801 -11601108.058 10 0 60067 18000.00000 0 6306182.016 -23108383.496 -8725577.139 10 0 60067 18900.00000 0 6543813.491 -23977998.814 -5680241.152 10 0 60067 19800.00000 0 6590505.003 -24502359.268 -2524392.544 10 0 60067 20700.00000 0 6492931.040 -24651620.699 680556.102 10 0 60067 21600.00000 0 6303080.523 -24408135.619 3872275.510 10 0 60067 22500.00000 0 6075809.389 -23767248.118 6988738.269 10 0 60067 23400.00000 0 5866281.040 -22737560.473 9969427.933 10 0 60067 24300.00000 0 5727403.963 -21340661.054 12756514.589 10 0 60067 25200.00000 0 5707375.651 -19610325.785 15295973.921 10 0 60067 26100.00000 0 5847436.824 -17591227.565 17538628.205 10 0 60067 27000.00000 0 6179930.641 -15337208.357 19441089.702 10 0 60067 27900.00000 0 6726748.378 -12909186.564 20966589.178 10 0 60067 28800.00000 0 7498226.454 -10372787.012 22085674.701 10 0 60067 29700.00000 0 8492540.734 -7795791.790 22776768.612 10 0 60067 30600.00000 0 9695623.192 -5245517.068 23026573.257 10 0 60067 31500.00000 0 11081604.438 -2786223.587 22830318.819 10 0 60067 32400.00000 0 12613763.911 -476666.691 22191849.393 10 0 60067 33300.00000 0 14245948.745 1632114.253 21123546.171 10 0 60067 34200.00000 0 15924403.034 3498677.093 19646089.343 10 0 60067 35100.00000 0 17589932.389 5092652.452 17788062.977 10 0 60067 36000.00000 0 19180314.753 6395753.830 15585409.865 10 0 60067 36900.00000 0 20632858.081 7402281.423 13080745.869 10 0 60067 37800.00000 0 21886999.121 8119099.642 10322545.929 10 0 60067 38700.00000 0 22886835.431 8565089.859 7364216.250 10 0 60067 39600.00000 0 23583485.029 8770101.669 4263069.601 10 0 60067 40500.00000 0 23937174.779 8773446.774 1079222.604 10 0 60067 41400.00000 0 23918969.459 8621998.863 -2125564.231 10 0 60067 42300.00000 0 23512068.051 8367979.495 -5289081.617 10 0 60067 43200.00000 0 22712611.615 8066523.436 -8349878.612 10 0 60067 44100.00000 0 21529967.365 7773126.495 -11248458.176 10 0 60067 45000.00000 0 19986475.464 7541084.115 -13928437.521 10 0 60067 45900.00000 0 18116667.597 7419029.663 -16337650.216 10 0 60067 46800.00000 0 15965988.611 7448677.425 -18429168.057 10 0 60067 47700.00000 0 13589073.533 7662866.771 -20162222.201 10 0 60067 48600.00000 0 11047651.034 8083991.466 -21503005.107 10 0 60067 49500.00000 0 8408160.209 8722881.820 -22425337.139 10 0 60067 50400.00000 0 5739179.720 9578188.326 -22911184.360 10 0 60067 51300.00000 0 3108776.302 10636294.193 -22951017.004 10 0 60067 52200.00000 0 581883.069 11871761.792 -22544001.220 10 0 60067 53100.00000 0 -1782183.095 13248295.347 -21698019.943 10 0 60067 54000.00000 0 -3931961.580 14720180.231 -20429522.137 10 0 60067 54900.00000 0 -5825752.280 16234138.897 -18763203.042 10 0 60067 55800.00000 0 -7433104.799 17731525.525 -16731521.437 10 0 60067 56700.00000 0 -8735831.044 19150766.997 -14374063.320 10 0 60067 57600.00000 0 -9728499.781 20429947.057 -11736764.507 10 0 60067 58500.00000 0 -10418393.653 21509424.164 -8871007.705 10 0 60067 59400.00000 0 -10824932.184 22334372.249 -5832612.317 10 0 60067 60300.00000 0 -10978586.843 22857136.469 -2680737.439 10 0 60067 61200.00000 0 -10919335.908 23039304.063 523279.565 10 0 60067 62100.00000 0 -10694726.514 22853402.813 3717125.187 10 0 60067 63000.00000 0 -10357627.638 22284155.377 6838728.230 10 0 60067 63900.00000 0 -9963770.763 21329236.959 9827469.977 10 0 60067 64800.00000 0 -9569183.525 19999504.901 12625361.978 10 0 60067 65700.00000 0 -9227625.722 18318691.122 15178168.384 10 0 60067 66600.00000 0 -8988136.418 16322571.001 17436451.220 10 0 60067 67500.00000 0 -8892795.678 14057644.082 19356518.942 10 0 60067 68400.00000 0 -8974794.857 11579382.064 20901260.890 10 0 60067 69300.00000 0 -9256896.081 8950117.239 22040852.684 10 0 60067 70200.00000 0 -9750344.945 6236658.877 22753320.330 10 0 60067 71100.00000 0 -10454281.404 3507735.866 23024953.482 10 0 60067 72000.00000 0 -11355673.114 831370.592 22850561.076 10 0 60067 72900.00000 0 -12429773.865 -1727708.533 22233565.358 10 0 60067 73800.00000 0 -13641088.155 -4110510.386 21185933.020 10 0 60067 74700.00000 0 -14944802.144 -6265980.785 19727944.920 10 0 60067 75600.00000 0 -16288622.071 -8152869.029 17887808.563 10 0 60067 76500.00000 0 -17614944.354 -9741185.493 15701120.114 10 0 60067 77400.00000 0 -18863267.779 -11013190.973 13210185.439 10 0 60067 78300.00000 0 -19972747.896 -11963877.706 10463212.132 10 0 60067 79200.00000 0 -20884787.505 -12600922.696 7513386.977 10 0 60067 80100.00000 0 -21545555.152 -12944115.715 4417855.621 10 0 60067 81000.00000 0 -21908326.055 -13024286.186 1236623.282 10 0 60067 81900.00000 0 -21935546.833 -12881773.976 -1968602.904 10 0 60067 82800.00000 0 -21600536.453 -12564508.425 -5135607.765 10 0 60067 83700.00000 0 -20888750.717 -12125776.482 -8202875.181 10 0 60067 84600.00000 0 -19798555.636 -11621774.181 -11110784.753 10 0 60067 85500.00000 0 -18341475.462 -11109045.050 -13802774.439 10 0 60068 0.00000 0 -16541903.357 -10641914.127 -16226445.825 10 0 60068 900.00000 0 -14436284.047 -10270026.387 -18334591.276 10 0 60068 1800.00000 0 -12071803.550 -10036094.995 -20086119.151 10 0 60068 2700.00000 0 -9504636.253 -9973954.660 -21446862.875 10 0 60068 3600.00000 0 -6797823.758 -10107003.970 -22390254.311 10 0 60068 4500.00000 0 -4018872.362 -10447103.364 -22897849.145 10 0 60068 5400.00000 0 -1237168.952 -10993976.372 -22959693.423 10 0 60068 6300.00000 0 1478677.328 -11735140.455 -22574523.659 10 0 60068 7200.00000 0 4063456.974 -12646371.270 -21749796.203 10 0 60068 8100.00000 0 6457836.439 -13692681.503 -20501544.940 10 0 60068 9000.00000 0 8610585.725 -14829773.512 -18854069.763 10 0 60068 9900.00000 0 10480464.485 -16005904.689 -16839461.680 10 0 60068 10800.00000 0 12037688.289 -17164086.796 -14496973.768 10 0 60068 11700.00000 0 13264914.390 -18244526.096 -11872250.327 10 0 60068 12600.00000 0 14157706.762 -19187200.707 -9016429.702 10 0 60068 13500.00000 0 14724462.246 -19934465.675 -5985138.827 10 0 60068 14400.00000 0 14985802.580 -20433574.871 -2837399.909 10 0 60068 15300.00000 0 14973459.856 -20639012.606 365528.380 10 0 60068 16200.00000 0 14728704.382 -20514535.792 3561351.655 10 0 60068 17100.00000 0 14300383.360 -20034840.178 6687958.078 10 0 60068 18000.00000 0 13742655.113 -19186780.406 9684629.495 10 0 60068 18900.00000 0 13112516.044 -17970092.568 12493221.370 10 0 60068 19800.00000 0 12467225.919 -16397589.225 15059288.355 10 0 60068 20700.00000 0 11861740.803 -14494819.189 17333133.788 10 0 60068 21600.00000 0 11346262.042 -12299206.698 19270763.395 10 0 60068 22500.00000 0 10964004.242 -9858706.246 20834725.671 10 0 60068 23400.00000 0 10749275.483 -7230029.267 21994823.900 10 0 60068 24300.00000 0 10725949.547 -4476516.122 22728687.397 10 0 60068 25200.00000 0 10906393.312 -1665741.167 23022192.346 10 0 60068 26100.00000 0 11290893.420 1133050.785 22869725.278 10 0 60068 27000.00000 0 11867605.613 3851571.736 22274285.102 10 0 60068 27900.00000 0 12613028.525 6425074.315 21247422.247 10 0 60068 28800.00000 0 13492982.216 8794786.828 19809016.275 10 0 60068 29700.00000 0 14464050.927 10910100.379 17986895.983 10 0 60068 30600.00000 0 15475430.405 12730419.014 15816308.660 10 0 60068 31500.00000 0 16471103.352 14226597.369 13339247.828 10 0 60068 32400.00000 0 17392252.806 15381907.195 10603651.330 10 0 60068 33300.00000 0 18179813.075 16192493.201 7662484.073 10 0 60068 34200.00000 0 18777051.733 16667299.659 4572722.108 10 0 60068 35100.00000 0 19132074.453 16827471.047 1394256.771 10 0 60068 36000.00000 0 19200147.162 16705251.850 -1811260.593 10 0 60068 36900.00000 0 18945737.186 16342431.615 -4981611.249 10 0 60068 37800.00000 0 18344186.396 15788400.587 -8055216.055 10 0 60068 38700.00000 0 17382944.503 15097897.705 -10972333.205 10 0 60068 39600.00000 0 16062308.857 14328546.012 -13676223.095 10 0 60068 40500.00000 0 14395637.724 13538279.636 -16114257.186 10 0 60068 41400.00000 0 12409026.094 12782771.335 -18238948.740 10 0 60068 42300.00000 0 10140455.693 12112969.734 -20008884.759 10 0 60068 43200.00000 0 7638453.060 11572850.877 -21389540.458 10 0 60068 44100.00000 0 4960310.274 11197479.753 -22353959.865 10 0 60068 45000.00000 0 2169941.485 11011464.403 -22883288.830 10 0 60068 45900.00000 0 -664536.223 11027868.623 -22967149.588 10 0 60068 46800.00000 0 -3473397.388 11247629.865 -22603849.191 10 0 60068 47700.00000 0 -6187970.343 11659507.540 -21800417.318 10 0 60068 48600.00000 0 -8743256.241 12240564.344 -20572472.364 10 0 60068 49500.00000 0 -11080395.887 12957160.600 -18943918.114 10 0 60068 50400.00000 0 -13148881.527 13766419.661 -16946476.683 10 0 60068 51300.00000 0 -14908421.478 14618102.276 -14619066.769 10 0 60068 52200.00000 0 -16330380.054 15456810.244 -12007039.418 10 0 60068 53100.00000 0 -17398733.244 16224425.589 -9161286.624 10 0 60068 54000.00000 0 -18110501.104 16862681.231 -6137240.688 10 0 60068 54900.00000 0 -18475640.082 17315753.565 -2993784.665 10 0 60068 55800.00000 0 -18516401.468 17532766.344 207903.861 10 0 60068 56700.00000 0 -18266184.857 17470099.187 3405552.100 10 0 60068 57600.00000 0 -17767937.017 17093402.606 6537010.094 10 0 60068 58500.00000 0 -17072165.575 16379234.081 9541462.841 10 0 60068 59400.00000 0 -16234653.044 15316246.117 12360612.346 10 0 60068 60300.00000 0 -15313968.953 13905876.373 14939806.358 10 0 60068 61200.00000 0 -14368885.817 12162511.019 17229092.071 10 0 60068 62100.00000 0 -13455808.202 10113114.822 19184174.904 10 0 60068 63000.00000 0 -12626322.879 7796343.570 20767264.755 10 0 60068 63900.00000 0 -11924972.448 5261175.931 21947794.556 10 0 60068 64800.00000 0 -11387344.923 2565121.415 22702998.615 10 0 60068 65700.00000 0 -11038558.224 -227921.684 23018340.960 10 0 60068 66600.00000 0 -10892201.879 -3050070.402 22887786.622 10 0 60068 67500.00000 0 -10949779.162 -5832024.942 22313911.624 10 0 60068 68400.00000 0 -11200672.210 -8505695.380 21307850.104 10 0 60068 69300.00000 0 -11622631.094 -11006780.128 19889079.802 10 0 60068 70200.00000 0 -12182766.315 -13277191.041 18085049.786 10 0 60068 71100.00000 0 -12839003.436 -15267226.232 15930656.963 10 0 60068 72000.00000 0 -13541939.451 -16937401.795 13467580.563 10 0 60068 72900.00000 0 -14237023.786 -18259867.386 10743486.338 10 0 60068 73800.00000 0 -14866973.095 -19219347.513 7811114.659 10 0 60068 74700.00000 0 -15374318.989 -19813569.689 4727269.064 10 0 60068 75600.00000 0 -15703981.900 -20053161.697 1551723.899 10 0 60068 76500.00000 0 -15805762.687 -19961022.201 -1653928.518 10 0 60068 77400.00000 0 -15636646.602 -19571190.887 -4827469.222 10 0 60068 78300.00000 0 -15162821.630 -18927265.322 -7907259.419 10 0 60068 79200.00000 0 -14361324.842 -18080430.885 -10833439.268 10 0 60068 80100.00000 0 -13221245.763 -17087186.603 -13549094.919 10 0 60068 81000.00000 0 -11744434.139 -16006862.673 -16001370.668 10 0 60068 81900.00000 0 -9945680.292 -14899034.481 -18142504.038 10 0 60068 82800.00000 0 -7852358.356 -13820942.421 -19930763.042 10 0 60068 83700.00000 0 -5503545.351 -12825026.726 -21331266.819 10 0 60068 84600.00000 0 -2948651.135 -11956681.701 -22316673.185 10 0 60068 85500.00000 0 -245614.983 -11252324.591 -22867719.177 10 0 60069 0.00000 0 2541256.895 -10737860.994 -22973603.660 10 0 60069 900.00000 0 5343725.072 -10427611.746 -22632204.085 10 0 60069 1800.00000 0 8092217.244 -10323747.492 -21850122.723 10 0 60069 2700.00000 0 10718492.029 -10416254.079 -20642561.285 10 0 60069 3600.00000 0 13158251.627 -10683430.970 -19033025.795 10 0 60069 4500.00000 0 15353595.813 -11092901.140 -17052867.400 10 0 60069 5400.00000 0 17255214.542 -11603089.417 -14740667.922 10 0 60069 6300.00000 0 18824227.779 -12165106.146 -12141482.271 10 0 60069 7200.00000 0 20033595.866 -12724955.653 -9305952.843 10 0 60069 8100.00000 0 20869041.958 -13225975.062 -6289313.739 10 0 60069 9000.00000 0 21329448.937 -13611399.168 -3150305.053 10 0 60069 9900.00000 0 21426715.332 -13826941.628 49980.648 10 0 60069 10800.00000 0 21185078.018 -13823282.239 3249296.095 10 0 60069 11700.00000 0 20639932.069 -13558354.259 6385457.001 10 0 60069 12600.00000 0 19836199.350 -12999334.492 9397555.018 10 0 60069 13500.00000 0 18826316.328 -12124251.784 12227141.775 10 0 60069 14400.00000 0 17667927.348 -10923145.993 14819360.747 10 0 60069 15300.00000 0 16421381.581 -9398728.710 17124005.074 10 0 60069 16200.00000 0 15147139.523 -7566518.177 19096481.414 10 0 60069 17100.00000 0 13903198.075 -5454442.805 20698662.063 10 0 60069 18000.00000 0 12742641.806 -3101929.885 21899610.077 10 0 60069 18900.00000 0 11711422.153 -558517.211 22676164.726 10 0 60069 19800.00000 0 10846456.300 2117955.182 23013377.380 10 0 60069 20700.00000 0 10174123.894 4863498.918 22904790.630 10 0 60069 21600.00000 0 9709223.065 7610388.661 22352556.270 10 0 60069 22500.00000 0 9454428.105 10289732.515 21367390.446 10 0 60069 23400.00000 0 9400270.553 12834096.517 19968367.069 10 0 60069 24300.00000 0 9525643.831 15180076.129 18182553.213 10 0 60069 25200.00000 0 9798810.093 17270709.725 16044492.934 10 0 60069 26100.00000 0 10178867.239 19057635.217 13595548.545 10 0 60069 27000.00000 0 10617614.923 20502901.326 10883110.961 10 0 60069 27900.00000 0 11061741.748 21580358.852 7959693.188 10 0 60069 28800.00000 0 11455242.204 22276574.319 4881923.390 10 0 60069 29700.00000 0 11741962.002 22591227.913 1709456.067 10 0 60069 30600.00000 0 11868164.678 22536978.885 -1496178.284 10 0 60069 31500.00000 0 11785010.994 22138803.691 -4672763.110 10 0 60069 32400.00000 0 11450845.901 21432834.193 -7758602.417 10 0 60069 33300.00000 0 10833195.461 20464744.275 -10693720.500 10 0 60069 34200.00000 0 9910388.054 19287752.375 -13421031.139 10 0 60069 35100.00000 0 8672729.700 17960323.695 -15887453.020 10 0 60069 36000.00000 0 7123181.947 16543668.721 -18044949.187 10 0 60069 36900.00000 0 5277511.661 15099143.427 -19851469.643 10 0 60069 37800.00000 0 3163904.257 13685660.769 -21271778.209 10 0 60069 38700.00000 0 822054.509 12357222.698 -22278147.039 10 0 60069 39600.00000 0 -1698228.779 11160676.906 -22850904.716 10 0 60069 40500.00000 0 -4338847.455 10133792.975 -22978826.865 10 0 60069 41400.00000 0 -7035593.032 9303739.169 -22659361.205 10 0 60069 42300.00000 0 -9720589.886 8686024.094 -21898682.270 10 0 60069 43200.00000 0 -12324901.215 8283947.798 -20711574.349 10 0 60069 44100.00000 0 -14781189.251 8088585.191 -19121144.618 10 0 60069 45000.00000 0 -17026318.679 8079302.079 -17158371.809 10 0 60069 45900.00000 0 -19003794.450 8224781.377 -14861499.133 10 0 60069 46800.00000 0 -20665932.013 8484515.284 -12275283.394 10 0 60069 47700.00000 0 -21975669.103 8810699.250 -9450115.228 10 0 60069 48600.00000 0 -22907943.655 9150446.427 -6441028.294 10 0 60069 49500.00000 0 -23450580.483 9448227.539 -3306617.420 10 0 60069 50400.00000 0 -23604650.336 9648431.485 -107887.825 10 0 60069 51300.00000 0 -23384287.732 9697937.066 3092941.094 10 0 60069 52200.00000 0 -22815976.622 9548585.829 6233653.085 10 0 60069 53100.00000 0 -21937335.734 9159450.626 9253248.847 10 0 60069 54000.00000 0 -20795456.445 8498803.472 12093132.041 10 0 60069 54900.00000 0 -19444864.575 7545699.317 14698244.245 10 0 60069 55800.00000 0 -17945193.059 6291108.957 17018126.861 10 0 60069 56700.00000 0 -16358664.059 4738553.479 19007889.959 10 0 60069 57600.00000 0 -14747486.404 2904213.738 20629070.222 10 0 60069 58500.00000 0 -13171277.145 816510.255 21850362.553 10 0 60069 59400.00000 0 -11684614.381 -1484829.109 22648212.601 10 0 60069 60300.00000 0 -10334822.430 -3950175.332 23007260.154 10 0 60069 61200.00000 0 -9160080.408 -6521820.549 22920626.076 10 0 60069 62100.00000 0 -8187931.560 -9136141.904 22390038.266 10 0 60069 63000.00000 0 -7434253.992 -11726018.521 21425794.837 10 0 60069 63900.00000 0 -6902734.404 -14223402.879 20046565.438 10 0 60069 64800.00000 0 -6584865.713 -16561941.553 18279034.344 10 0 60069 65700.00000 0 -6460467.967 -18679538.164 16157391.572 10 0 60069 66600.00000 0 -6498710.373 -20520753.463 13722680.981 10 0 60069 67500.00000 0 -6659591.639 -22038943.870 11022016.793 10 0 60069 68400.00000 0 -6895816.680 -23198050.212 8107682.509 10 0 60069 69300.00000 0 -7154991.178 -23973962.415 5036128.541 10 0 60069 70200.00000 0 -7382041.928 -24355403.194 1866886.974 10 0 60069 71100.00000 0 -7521761.149 -24344293.471 -1338576.245 10 0 60069 72000.00000 0 -7521367.312 -23955583.663 -4518049.852 10 0 60069 72900.00000 0 -7332973.953 -23216557.297 -7609783.639 10 0 60069 73800.00000 0 -6915861.371 -22165635.447 -10553689.126 10 0 60069 74700.00000 0 -6238454.059 -20850731.609 -13292510.847 10 0 60069 75600.00000 0 -5279918.818 -19327225.617 -15772944.990 10 0 60069 76500.00000 0 -4031314.269 -17655641.400 -17946683.116 10 0 60069 77400.00000 0 -2496241.267 -15899126.004 -19771359.997 10 0 60069 78300.00000 0 -690964.688 -14120835.793 -21211386.602 10 0 60069 79200.00000 0 1356000.691 -12381339.706 -22238651.472 10 0 60069 80100.00000 0 3604824.804 -10736148.816 -22833076.325 10 0 60069 81000.00000 0 6005780.044 -9233476.114 -22983014.628 10 0 60069 81900.00000 0 8501084.255 -7912320.669 -22685484.946 10 0 60069 82800.00000 0 11027093.006 -6800956.712 -21946234.101 10 0 60069 83700.00000 0 13516750.236 -5915890.935 -20779628.546 10 0 60069 84600.00000 0 15902195.284 -5261331.526 -19208375.712 10 0 60069 85500.00000 0 18117417.380 -4829190.697 -17263080.553 10 0 60070 0.00000 0 20100846.351 -4599619.805 -14981646.040 10 0 60070 900.00000 0 21797771.914 -4542053.318 -12408528.096 10 0 60070 1800.00000 0 23162487.451 -4616716.548 -9593862.982 10 0 60070 2700.00000 0 24160071.918 -4776531.569 -6592480.640 10 0 60070 3600.00000 0 24767732.574 -4969339.494 -3462826.978 10 0 60070 4500.00000 0 24975653.809 -5140343.334 -265815.972 10 0 60070 5400.00000 0 24787316.988 -5234666.517 2936364.852 10 0 60070 6300.00000 0 24219279.088 -5199917.405 6081471.243 10 0 60070 7200.00000 0 23300420.961 -4988650.249 9108416.699 10 0 60070 8100.00000 0 22070698.242 -4560617.694 11958460.361 10 0 60070 9000.00000 0 20579448.937 -3884719.246 14576344.953 10 0 60070 9900.00000 0 18883330.017 -2940563.328 16911362.713 10 0 60070 10800.00000 0 17043970.464 -1719577.147 18918329.217 10 0 60070 11700.00000 0 15125439.563 -225617.825 20558447.128 10 0 60070 12600.00000 0 13191636.310 1524940.732 21800044.308 10 0 60070 13500.00000 0 11303708.388 3503648.962 22619173.430 10 0 60070 14400.00000 0 9517607.368 5670932.691 23000062.880 10 0 60070 15300.00000 0 7881880.630 7977515.050 22935411.513 10 0 60070 16200.00000 0 6435790.345 10366251.054 22426522.601 10 0 60070 17100.00000 0 5207836.115 12774299.844 21483275.049 10 0 60070 18000.00000 0 4214741.209 15135545.767 20123932.660 10 0 60070 18900.00000 0 3460943.197 17383169.323 18374794.935 10 0 60070 19800.00000 0 2938609.113 19452262.722 16269695.572 10 0 60070 20700.00000 0 2628173.778 21282382.714 13849357.402 10 0 60070 21600.00000 0 2499378.318 22819935.578 11160615.162 10 0 60070 22500.00000 0 2512765.241 24020295.725 8255519.889 10 0 60070 23400.00000 0 2621567.408 24849569.885 5190341.159 10 0 60070 24300.00000 0 2773911.593 25285933.157 2024485.504 10 0 60070 25200.00000 0 2915243.979 25320480.679 -1180648.817 10 0 60070 26100.00000 0 2990875.249 24957558.538 -4362858.873 10 0 60070 27000.00000 0 2948537.555 24214559.231 -7460343.120 10 0 60070 27900.00000 0 2740844.733 23121189.279 -10412902.937 10 0 60070 28800.00000 0 2327550.859 21718238.835 -13163115.948 10 0 60070 29700.00000 0 1677510.429 20055904.099 -15657457.844 10 0 60070 30600.00000 0 770255.736 18191732.310 -17847350.365 10 0 60070 31500.00000 0 -402876.928 16188275.080 -19690114.399 10 0 60070 32400.00000 0 -1838121.772 14110548.267 -21149809.110 10 0 60070 33300.00000 0 -3519187.093 12023404.758 -22197940.198 10 0 60070 34200.00000 0 -5417694.021 9988930.346 -22814023.009 10 0 60070 35100.00000 0 -7494133.862 8063971.851 -22985989.061 10 0 60070 36000.00000 0 -9699305.510 6297901.141 -22710427.652 10 0 60070 36900.00000 0 -11976173.945 4730708.713 -21992657.421 10 0 60070 37800.00000 0 -14262072.936 3391506.582 -20846626.109 10 0 60070 38700.00000 0 -16491160.288 2297502.894 -19294640.136 10 0 60070 39600.00000 0 -18597023.006 1453490.713 -17366929.024 10 0 60070 40500.00000 0 -20515323.231 851871.567 -15101053.090 10 0 60070 41400.00000 0 -22186373.738 473211.622 -12541165.971 10 0 60070 42300.00000 0 -23557534.735 287305.597 -9737146.759 10 0 60070 43200.00000 0 -24585331.050 254701.951 -6743619.170 10 0 60070 44100.00000 0 -25237200.633 328623.145 -3618877.667 10 0 60070 45000.00000 0 -25492801.039 457197.969 -423742.434 10 0 60070 45900.00000 0 -25344819.322 585909.762 2779633.420 10 0 60070 46800.00000 0 -24799252.163 660155.276 5928980.158 10 0 60070 47700.00000 0 -23875145.463 627804.593 8963126.579 10 0 60070 48600.00000 0 -22603805.652 441652.803 11823189.762 10 0 60070 49500.00000 0 -21027517.141 61659.208 14453715.930 10 0 60070 50400.00000 0 -19197820.868 -543120.813 16803750.378 10 0 60070 51300.00000 0 -17173427.096 -1392992.714 18827816.209 10 0 60070 52200.00000 0 -15017850.349 -2496533.252 20486783.836 10 0 60070 53100.00000 0 -12796865.394 -3850000.089 21748615.549 10 0 60070 54000.00000 0 -10575890.022 -5437265.146 22588972.176 10 0 60070 54900.00000 0 -8417402.706 -7230274.615 22991671.481 10 0 60070 55800.00000 0 -6378501.349 -9190016.791 22948990.751 10 0 60070 56700.00000 0 -4508702.994 -11267958.086 22461808.752 10 0 60070 57600.00000 0 -2848074.169 -13407888.449 21539584.988 10 0 60070 58500.00000 0 -1425767.871 -15548100.686 20200176.927 10 0 60070 59400.00000 0 -259026.357 -17623814.447 18469498.536 10 0 60070 60300.00000 0 647310.117 -19569745.552 16381026.121 10 0 60070 61200.00000 0 1300769.213 -21322715.051 13975160.142 10 0 60070 62100.00000 0 1720689.230 -22824190.504 11298454.224 10 0 60070 63000.00000 0 1937162.387 -24022654.353 8402725.044 10 0 60070 63900.00000 0 1989523.111 -24875700.888 5344059.218 10 0 60070 64800.00000 0 1924444.818 -25351774.170 2181735.393 10 0 60070 65700.00000 0 1793725.238 -25431473.761 -1022918.356 10 0 60070 66600.00000 0 1651853.589 -25108372.776 -4207710.078 10 0 60070 67500.00000 0 1553462.465 -24389312.943 -7310789.663 10 0 60070 68400.00000 0 1550772.450 -23294163.113 -10271851.216 10 0 60070 69300.00000 0 1691138.168 -21855050.131 -13033308.377 10 0 60070 70200.00000 0 2014800.498 -20115093.209 -15541419.277 10 0 60070 71100.00000 0 2552941.284 -18126693.860 -17747338.706 10 0 60070 72000.00000 0 3326124.236 -15949452.330 -19608076.380 10 0 60070 72900.00000 0 4343189.613 -13647797.226 -21087342.112 10 0 60070 73800.00000 0 5600651.166 -11288427.231 -22156260.889 10 0 60070 74700.00000 0 7082622.589 -8937671.803 -22793943.406 10 0 60070 75600.00000 0 8761278.424 -6658881.172 -22987900.516 10 0 60070 76500.00000 0 10597831.630 -4509954.746 -22734293.076 10 0 60070 77400.00000 0 12543988.158 -2541111.272 -22038011.921 10 0 60070 78300.00000 0 14543818.495 -792993.853 -20912586.019 10 0 60070 79200.00000 0 16535968.355 704811.177 -19379920.271 10 0 60070 80100.00000 0 18456116.066 1934780.025 -17469867.824 10 0 60070 81000.00000 0 20239573.486 2891940.479 -15219645.136 10 0 60070 81900.00000 0 21823921.055 3583824.847 -12673101.263 10 0 60070 82800.00000 0 23151565.836 4029890.179 -9879855.952 10 0 60070 83700.00000 0 24172114.532 4260431.843 -6894323.883 10 0 60070 84600.00000 0 24844461.403 4315038.183 -3774644.869 10 0 60070 85500.00000 0 25138502.885 4240653.439 -581541.818 99